Regional Weather Roundup
Issued by NWS

Home | Current Version | Previous Version | Graphics & Text | Print | Product List | Glossary On
Versions: 1 2 3 4 5 6 7 8 9 10 11 12 13 14 15 16 17 18 19 20 21 22 23 24 25 26 27 28 29 30 31 32 33 34 35 36 37 38 39 40 41 42 43 44 45 46 47 48 49 50
000
ASUS43 KDTX 020310
RWRMI
MICHIGAN HOURLY REGIONAL WEATHER ROUNDUP
NATIONAL WEATHER SERVICE DETROIT/PONTIAC MI
1100 PM EDT WED OCT 01 2014

NOTE: "FAIR" INDICATES FEW OR NO CLOUDS BELOW 12,000 FEET WITH NO
SIGNIFICANT WEATHER AND/OR OBSTRUCTION TO VISIBILITY.

MIZ047>049-052>055-059>063-066>070-074>076-081>083-020400-
SOUTHEAST LOWER MICHIGAN

CITY           SKY/WX    TMP DP  RH WIND       PRES   REMARKS
ADRIAN         CLEAR     54  52  93 SE5       30.04S
ALMA             N/A     48  47  97 CALM      30.02F FOG
ANN ARBOR      FOG       48  46  93 CALM      30.03F VSB 3/4
BAD AXE        CLEAR     56  56 100 CALM      30.05F FOG
CARO           CLOUDY    57  56  97 SE3       30.04S FOG
DETROIT CITY   CLEAR     61  55  81 SE3       30.06R
DETROIT        MOCLDY    57  55  93 CALM      30.04F
FLINT          CLEAR     57  52  83 S5        30.05R
GROSSE ILE     MOCLDY    59  55  88 CALM      30.03S FOG
HILLSDALE      CLEAR     55  53  94 SE3       30.03R
HOWELL         CLEAR     52  50  93 CALM      30.03S

CITY           SKY/WX    TMP DP  RH WIND       PRES   REMARKS
JACKSON        CLEAR     53  49  86 SE5       30.03S
LAMBERTVILLE   FOG       52  50  93 CALM      30.04S VSB 1
LANSING        FAIR      51  46  83 SE5       30.03S
LAPEER         CLOUDY    54  53  96 CALM      30.05S FOG
MASON          CLEAR     51  49  93 CALM      30.03S
MONROE         MOCLDY    52  52 100 CALM      30.02S FOG
MT. CLEMENS    CLEAR     55  55 100 E6        30.02F
PONTIAC        PTCLDY    57  54  89 SE5       30.04S
PORT HOPE        N/A     56  55  97 CALM      30.04S
PORT HURON     CLOUDY    59  57  94 CALM      30.06R
TRI CITIES     MOCLDY    58  52  80 SE6       30.03F
TROY           CLEAR     60  56  88 CALM      30.06S FOG
SAGINAW HB     CLEAR     54  54 100 SE5       30.03S FOG
$$
MIZ043>046-050>051-056>058-064>065-071>073-077>080-020400-
SOUTHWEST LOWER MICHIGAN

CITY           SKY/WX    TMP DP  RH WIND       PRES   REMARKS
BATTLE CREEK   PTCLDY    57  48  72 SE5       30.02R
BENTON HARBOR  MOCLDY    59  50  72 SE10      29.96S
BIG RAPIDS     MOCLDY    51  51 100 CALM      30.01R
COLDWATER      CLEAR     54  50  87 E3        30.01S
FREMONT        FAIR      53  50  90 E5        29.98F
GRAND RAPIDS   CLOUDY    55  51  86 E6        30.01
IONIA          FAIR      53  49  86 SE7       30.01R
LUDINGTON      MOCLDY    52  50  93 E5        29.97S
MARSHALL       CLEAR     51  48  87 E3        30.02S
MOUNT PLEASANT FOG       47  47  98 CALM      30.01S VSB 1/2
MUSKEGON       MOCLDY    56  50  80 SE5       29.99R
SOUTH HAVEN    MOCLDY    59  52  78 SE6       29.97S
$$
MIZ016>042-020400-
NORTHERN LOWER MICHIGAN

CITY           SKY/WX    TMP DP  RH WIND       PRES   REMARKS
ALPENA         FOG       54  54 100 SE5       30.05R VSB 1
BEAVER ISLAND  PTCLDY    55  54  95 SW3       29.98R
BELLAIRE       CLEAR     50  48  95 CALM      29.99F FOG
CADILLAC       CLEAR     52  49  91 SE3       30.00R
CHARLEVOIX     CLEAR     54  53  97 SE6       30.00F
FRANKFORT      MOCLDY    55  50  82 E5        29.98R
GAYLORD        PTCLDY    52  50  93 S7        30.01F
GRAYLING       FOG       49  49 100 E3        30.02F VSB 3/4
HARBOR SPRINGS PTCLDY    54  53  95 E3        29.99F FOG
HOUGHTON LAKE  FOG       52  52 100 SE7       30.03S VSB 1/2
OSCODA         PTCLDY    57  56  97 CALM      30.04R FOG
PELLSTON       CLOUDY    56  56 100 SE7       30.00S FOG
ROGERS CITY    CLOUDY    58  57  99 SE7       30.05R FOG
TRAVERSE CITY  CLEAR     52  49  89 CALM      29.97S
$$
MIZ007>008-015-020400-
EASTERN UPPER MICHIGAN

CITY           SKY/WX    TMP DP  RH WIND       PRES   REMARKS
MACKINAC ISLAN CLOUDY    57  57  99 SE7       30.00S FOG
NEWBERRY       CLOUDY    56  55  95 SE15      29.95F
S. S. MARIE    CLOUDY    57  55  93 SE13      30.00F FOG
MUNISING         N/A     57  51  80 S12       29.92R
$$
MIZ004>006-011>014-085-020400-
CENTRAL UPPER MICHIGAN

CITY           SKY/WX    TMP DP  RH WIND       PRES   REMARKS
MANISTIQUE     CLOUDY    55  54  95 S7        29.96R
SAWYER-GWINN   CLOUDY    52  49  89 S15       29.91F
$$
MIZ001>003-009>011-084-020400-
WESTERN UPPER MICHIGAN

CITY           SKY/WX    TMP DP  RH WIND       PRES   REMARKS
IRON MOUNTAIN  CLOUDY    53  50  89 SE9       29.90F
HOUGHTON       CLOUDY    54  50  86 S9        29.85S
COPPER HARBOR    N/A     54  51  90 SW9       29.85R
$$

ABBREVIATIONS USED IN REMARKS
   TC - TEMPERATURE IN CELSIUS
  WCI - WIND CHILL INDEX
   HX - HEAT INDEX
  VSB - VISIBILITY



USA.gov is the U.S. government's official web portal to all federal, state and local government web resources and services.